Theta_e
319 323 323 325 334 334 337 337 342 344 345 343 344 344 345 345 346 350 350 345 348 351 339 333 332 330 328 331 335 336 338 337 333 328 322 319 322 326 325 324 323 323 323 323 326 328 328 334 338
318 322 323 330 335 337 337 336 341 341 336 336 340 342 345 351 351 349 347 347 349 349 337 334 332 329 327 327 326 325 326 329 327 325 319 320 322 323 324 324 323 323 323 323 324 326 328 331 337
318 320 326 334 336 336 337 335 340 335 334 337 343 344 346 354 349 343 345 348 350 348 338 335 333 331 330 330 326 321 320 323 323 319 319 320 322 324 324 324 323 323 323 323 323 323 325 327 327
321 322 325 333 335 335 334 336 336 334 335 336 344 348 354 356 352 348 345 348 348 346 344 336 334 334 332 331 327 321 321 322 320 319 320 321 323 324 324 324 323 321 322 323 323 323 322 323 324
320 324 331 333 335 335 333 334 333 335 336 339 344 348 354 356 355 347 347 348 347 346 346 336 335 335 335 334 331 324 321 321 319 320 321 322 323 324 324 325 323 321 321 322 322 323 323 322 322
323 323 333 334 334 334 333 332 332 334 335 338 344 349 355 356 353 347 348 347 345 345 346 337 336 336 336 336 335 331 324 321 320 319 322 323 324 324 323 325 324 322 322 321 321 321 321 321 321
324 327 332 335 333 334 334 332 332 335 335 343 345 352 356 356 354 348 348 346 345 346 345 337 337 336 337 337 336 336 334 327 322 321 320 320 321 322 323 325 325 322 322 322 321 320 320 319 319
322 327 331 333 335 334 333 332 331 332 335 347 349 352 356 356 354 349 348 347 346 346 346 345 341 338 338 338 338 337 336 335 331 327 324 322 321 321 322 323 324 322 321 323 322 321 321 320 320
321 326 328 333 334 334 332 332 331 333 335 348 350 352 354 354 354 351 350 348 346 345 346 346 345 345 344 342 339 339 338 337 336 334 330 327 327 328 323 322 322 322 322 322 323 322 322 321 321
322 325 324 329 332 332 333 331 332 334 339 349 352 355 355 354 353 351 351 348 346 346 348 348 348 348 347 346 338 339 339 339 338 337 335 335 342 337 333 329 322 322 322 322 322 322 323 323 332
320 323 324 327 327 326 331 330 332 333 339 345 351 355 355 355 354 352 352 349 347 347 347 348 347 345 348 347 341 345 345 345 341 338 337 337 341 338 334 338 336 328 329 328 336 335 332 335 337
320 321 323 325 323 324 329 330 330 332 336 343 350 355 355 355 354 352 351 348 346 347 347 348 349 342 346 347 347 347 347 348 348 345 336 336 334 336 333 339 337 332 335 332 333 334 335 331 342
319 321 322 323 323 324 326 329 331 331 333 346 353 355 355 355 354 352 349 348 347 347 347 348 347 340 339 341 347 347 348 348 348 345 336 334 334 334 336 340 335 334 333 333 333 336 340 342 342
319 320 322 323 323 323 326 329 330 331 343 351 355 355 354 352 351 349 348 348 348 347 348 349 346 339 338 336 341 338 341 346 342 345 342 329 328 330 340 340 340 338 338 338 335 335 336 341 343
318 321 323 323 324 326 325 327 331 333 348 353 354 354 353 352 351 350 349 348 347 347 349 347 339 339 337 336 338 334 341 332 344 341 329 336 337 333 336 343 344 345 345 345 344 345 343 344 345
320 320 323 323 324 324 326 330 330 334 350 352 353 354 353 353 351 351 350 348 349 350 347 340 342 342 338 336 333 336 331 330 338 335 339 344 345 345 344 344 346 347 346 346 346 347 347 346 345
319 320 321 322 323 325 326 331 329 331 346 351 352 352 352 351 347 346 346 351 354 355 355 349 345 347 343 339 338 335 333 334 343 345 347 347 346 347 346 346 347 346 348 349 347 345 346 348 346
318 319 320 321 323 324 326 327 329 329 334 342 345 345 345 338 336 336 339 342 348 351 351 350 348 344 342 341 339 344 347 348 349 349 349 342 342 344 345 346 345 345 345 349 348 345 348 346 346
318 318 319 321 323 323 325 327 328 329 330 332 332 333 331 330 330 331 334 334 341 347 344 346 345 343 341 342 344 345 346 347 344 349 342 336 336 335 347 347 348 347 343 343 340 338 344 346 345
318 319 319 320 322 323 324 326 328 330 330 329 330 330 330 330 330 331 340 341 344 344 340 338 341 341 341 345 345 345 345 345 343 338 336 336 338 340 341 343 343 344 343 341 338 337 339 344 344
317 318 319 320 321 322 324 326 327 328 329 330 330 329 330 330 330 330 337 343 345 345 342 342 342 341 341 342 340 338 341 337 341 338 339 339 340 341 341 342 343 342 340 341 338 338 339 341 342
316 317 319 320 322 322 324 327 328 329 330 330 330 330 331 330 330 330 331 341 344 347 346 342 341 341 341 338 339 344 347 341 337 335 336 335 334 332 332 331 331 332 332 333 335 335 336 343 341
316 315 317 319 322 321 323 324 327 328 329 331 330 330 330 329 330 330 330 335 341 342 344 342 341 339 337 338 339 339 337 335 333 332 330 326 322 320 319 318 316 316 315 315 315 318 321 332 335
316 316 316 318 318 321 323 322 324 327 328 328 329 329 328 328 328 329 331 339 340 342 342 338 335 336 336 334 333 333 332 331 328 325 324 321 320 316 312 313 314 315 315 315 314 312 314 313 317
317 318 318 317 317 318 319 322 322 325 325 327 328 326 326 326 327 328 331 336 338 340 342 339 335 335 333 330 328 326 324 322 319 320 317 319 319 319 316 316 316 316 316 314 313 311 312 318 319
317 319 319 319 320 320 318 319 321 322 323 322 324 325 325 326 325 326 328 333 337 339 340 340 335 332 328 324 318 316 317 320 319 315 319 320 320 317 316 316 316 315 313 312 310 312 316 317 317
317 318 319 320 320 320 320 320 322 321 323 325 324 324 325 324 324 326 328 334 336 338 338 337 334 327 326 321 317 316 316 317 315 316 316 317 317 318 317 316 314 314 316 316 311 313 314 314 315
316 318 318 320 321 321 321 321 320 322 322 322 323 324 324 324 324 325 329 336 337 337 337 335 330 328 325 323 320 318 318 317 317 317 317 317 317 317 316 316 315 314 315 315 313 313 313 313 313
316 317 318 319 321 321 323 322 322 322 323 325 325 325 327 327 325 326 330 337 337 337 335 330 328 326 325 322 318 318 317 317 317 317 317 317 317 316 315 314 313 313 313 313 313 313 312 311 311
316 316 318 320 321 322 322 325 325 327 329 329 328 327 327 328 329 329 334 336 335 335 330 327 325 324 323 320 318 317 317 317 317 317 317 317 316 315 314 313 312 312 312 312 311 311 310 309 308
Wind_Speed
6 8 6 5 7 7 13 7 3 9 8 6 4 1 9 13 8 5 15 15 23 25 26 24 22 19 17 19 19 18 17 15 12 12 14 16 17 15 13 11 10 9 8 8 7 6 7 7 7
6 5 5 7 9 11 12 5 12 6 6 3 6 6 4 12 9 15 19 23 26 26 27 24 22 19 17 17 16 16 16 15 13 13 15 17 16 14 12 10 9 8 7 6 5 4 4 4 4
6 5 9 6 13 15 12 11 10 4 2 7 7 2 5 6 9 16 17 27 27 26 26 25 22 19 16 15 13 13 15 16 15 16 18 18 16 13 11 9 8 7 6 5 4 2 2 1 1
5 7 8 10 15 18 6 8 7 5 5 8 9 9 8 4 8 9 25 28 27 25 24 25 23 19 17 14 12 12 14 15 16 17 18 17 15 13 11 9 7 7 6 4 3 2 1 2 3
10 9 11 16 21 17 8 6 3 5 3 10 13 10 8 5 8 21 26 27 28 25 24 25 23 20 17 15 12 11 13 15 16 16 16 15 13 11 9 8 6 5 4 4 3 1 2 2 4
15 11 14 18 23 19 11 11 6 8 4 8 10 14 8 9 16 22 26 26 25 26 25 26 24 20 17 15 12 10 10 12 13 14 14 13 11 9 8 7 5 5 4 4 3 2 3 4 5
22 14 23 22 22 20 18 14 12 10 4 8 8 11 9 13 18 23 26 25 25 24 24 26 24 22 18 15 12 11 9 9 10 11 11 11 10 9 8 8 7 6 5 5 4 4 4 6 7
26 14 26 26 21 25 22 14 12 9 4 3 8 9 10 20 22 24 25 25 24 24 23 23 24 22 19 17 14 12 11 9 8 9 9 10 10 10 11 10 9 8 8 7 7 7 7 7 8
22 16 20 34 26 21 22 17 15 5 8 4 3 3 12 26 24 26 27 26 25 23 22 22 21 20 18 17 17 15 13 11 10 9 9 8 7 9 11 12 10 10 10 9 9 9 9 9 9
21 19 29 24 20 19 18 21 18 12 10 8 7 12 22 26 27 29 29 30 28 26 24 22 21 20 18 16 18 17 16 14 13 11 10 8 7 8 8 10 11 12 12 11 11 11 12 11 9
31 25 22 11 9 20 15 19 15 16 14 12 13 17 22 26 26 28 26 27 28 25 24 23 23 21 18 15 16 15 14 13 14 13 11 10 9 8 7 6 7 9 10 10 11 10 10 10 11
23 33 26 13 17 15 17 18 16 18 6 7 10 17 21 24 27 28 26 26 25 26 24 22 22 23 20 14 14 13 12 12 11 11 13 12 9 9 7 7 7 9 7 10 10 10 11 12 12
27 25 25 21 19 14 8 16 15 16 6 7 17 19 20 22 23 22 22 22 23 23 23 22 22 22 21 18 13 12 13 12 10 11 11 11 9 9 7 8 7 9 8 8 9 10 11 11 11
26 24 25 26 18 13 12 9 13 10 10 14 20 21 21 21 21 20 20 21 21 20 20 19 20 22 21 18 16 14 13 10 11 10 10 9 8 9 8 8 8 8 6 7 9 10 11 11 13
21 26 21 26 22 11 9 8 10 14 16 19 21 20 19 19 18 18 18 18 17 17 17 19 20 19 20 18 14 13 10 12 9 8 8 7 6 8 8 8 7 7 8 8 10 11 11 12 13
21 25 19 26 24 18 16 16 9 12 18 20 21 21 19 18 17 14 13 14 13 13 16 17 16 16 17 15 15 11 12 11 8 8 8 7 8 8 9 9 9 9 12 12 13 12 12 14 15
21 21 27 26 25 17 17 22 14 13 16 18 20 20 19 17 15 14 13 13 13 13 13 16 17 13 14 17 13 13 12 9 7 8 8 8 9 10 11 11 12 14 13 13 17 16 16 15 17
26 24 28 22 24 25 19 17 21 13 16 18 20 19 17 16 14 12 11 12 13 14 14 15 15 13 11 8 10 7 6 4 5 5 5 8 7 11 16 15 15 14 14 12 13 15 14 17 19
25 25 29 25 18 27 22 18 13 21 17 18 18 19 19 18 13 9 8 11 14 16 18 17 16 13 11 9 8 8 6 7 4 6 11 11 14 16 15 15 13 13 14 15 18 19 17 17 18
25 25 19 21 15 20 23 21 14 23 19 18 17 16 17 15 12 10 7 9 11 14 17 18 15 14 12 11 11 8 8 9 12 13 15 16 16 14 15 16 17 18 18 19 20 24 23 18 18
18 23 16 21 17 19 22 20 20 15 26 31 24 16 12 14 13 11 10 9 10 11 14 14 16 13 12 11 10 9 8 8 3 3 3 3 4 5 6 8 11 13 12 12 18 18 19 18 18
16 19 18 19 21 16 19 16 22 20 17 18 24 21 20 14 10 9 9 9 10 11 12 12 12 11 8 7 8 9 6 7 6 4 3 4 5 5 6 7 7 8 8 11 11 13 15 15 16
10 15 19 15 18 16 20 14 24 21 19 18 22 23 16 14 12 11 9 8 8 9 10 12 11 11 9 9 9 9 8 8 8 7 8 7 9 9 9 9 11 14 15 18 20 19 17 13 15
12 20 17 17 11 13 15 18 17 23 24 22 22 20 20 18 16 13 9 10 9 11 11 12 12 12 13 11 10 9 10 12 12 9 7 6 6 8 11 14 17 18 20 22 23 23 19 21 17
13 20 11 14 13 11 18 14 14 21 22 24 23 24 22 19 19 18 14 12 13 14 15 16 16 18 16 16 16 15 15 13 10 10 8 7 5 7 14 16 18 19 22 25 26 25 22 16 16
21 21 15 19 15 12 12 11 9 9 2 13 20 23 21 19 20 21 22 19 16 17 18 20 19 20 21 20 19 17 14 11 10 8 6 5 5 9 13 16 18 21 23 24 23 18 15 15 17
23 16 4 2 16 13 10 5 3 6 13 13 16 17 17 19 20 21 24 23 21 21 20 20 21 22 21 20 18 16 12 8 4 3 5 6 9 8 15 18 20 21 17 16 20 15 16 16 17
22 18 8 6 10 10 12 15 6 15 15 16 16 18 18 16 18 20 24 23 22 21 21 20 20 20 20 17 14 10 6 3 1 3 6 9 13 16 17 17 17 19 18 17 20 17 18 19 19
15 16 13 6 3 7 7 9 7 13 11 14 14 10 9 14 18 21 24 24 23 23 22 21 20 19 17 14 11 8 5 4 5 6 8 12 16 18 19 21 23 23 21 20 22 22 23 24 26
14 16 14 6 8 3 1 8 5 5 7 5 7 5 4 9 15 21 24 24 25 25 24 21 19 16 14 13 10 8 7 7 9 13 15 18 20 22 23 26 26 24 22 23 24 27 28 30 30
Wind_Direction
275 295 290 267 242 231 244 197 343 158 160 112 122 142 60 26 6 51 145 150 157 156 164 159 156 153 150 155 162 169 173 174 169 160 150 148 149 146 142 138 134 133 134 134 131 125 125 125 120
247 287 246 249 248 217 224 171 197 151 91 191 194 170 174 79 58 120 139 153 153 157 163 160 156 151 150 152 162 170 176 179 172 162 154 153 152 146 141 139 135 133 133 135 137 129 120 131 136
232 230 239 223 232 241 229 173 169 173 224 193 142 136 95 92 107 134 156 151 154 156 161 160 156 153 152 154 159 166 170 173 169 162 160 158 156 151 148 149 146 142 141 144 143 147 141 171 200
195 212 229 235 222 227 272 193 134 242 166 181 147 110 103 113 138 156 149 153 153 157 160 161 159 158 157 155 152 156 162 167 166 165 165 164 163 159 161 160 160 155 154 155 159 170 190 261 280
197 243 223 222 231 227 186 242 210 253 176 166 189 135 112 96 132 148 152 155 155 159 163 164 164 164 165 158 154 153 164 168 170 171 171 172 171 172 174 172 172 171 168 166 177 215 264 276 284
202 220 226 216 222 223 216 228 247 247 175 148 191 139 112 131 137 151 154 157 160 159 164 169 168 170 172 168 164 160 162 172 175 178 182 184 184 189 194 194 193 195 194 195 207 230 265 278 282
228 209 229 220 222 213 221 218 242 231 208 146 146 147 132 147 154 153 157 160 163 163 163 172 173 175 177 178 178 175 172 170 176 187 194 200 205 209 214 216 221 225 222 221 225 238 252 268 277
217 235 232 234 222 219 216 220 221 247 194 148 181 169 172 166 157 156 160 164 167 167 169 171 177 179 181 185 190 192 190 187 183 190 200 210 217 223 229 234 235 239 241 243 246 249 254 261 270
217 224 225 218 222 219 196 221 203 223 242 178 179 122 154 161 155 158 161 167 170 172 174 175 176 180 179 189 195 198 202 205 205 205 209 215 222 234 244 244 249 250 252 255 260 264 269 273 278
208 217 219 223 208 252 212 214 209 216 209 203 155 126 141 151 158 163 168 171 174 176 177 182 179 184 183 187 202 204 209 213 214 218 225 223 221 231 234 251 253 256 261 266 271 274 278 283 294
211 226 221 198 195 229 218 219 202 218 215 206 187 160 156 159 161 168 171 177 178 178 179 185 187 192 187 192 201 200 206 209 219 223 230 227 233 251 254 257 280 277 277 277 285 290 298 283 281
213 223 224 194 198 210 216 210 205 219 214 180 185 172 166 167 169 173 173 179 180 183 183 186 191 197 191 193 198 205 203 208 210 221 232 237 245 254 239 250 255 277 269 267 281 283 277 288 289
214 199 224 197 198 203 193 206 207 208 219 184 164 168 170 169 169 172 175 181 185 188 187 189 194 202 203 198 197 200 200 209 213 222 236 239 244 249 253 253 256 254 258 267 272 275 280 282 285
197 214 202 213 198 185 212 191 184 173 185 163 165 165 169 170 168 172 180 183 189 189 192 192 197 205 207 202 201 213 210 213 213 223 229 243 250 256 252 266 266 258 269 264 267 269 271 282 279
202 211 202 215 208 202 206 184 207 161 178 168 168 166 173 174 174 178 183 185 188 192 191 200 204 210 211 207 210 213 220 232 218 226 242 245 251 260 261 264 269 263 272 287 291 293 292 288 283
214 203 198 200 208 211 203 189 181 171 175 173 170 166 171 173 172 178 185 186 192 194 203 205 201 212 216 222 220 221 234 240 237 238 239 254 263 264 268 265 264 261 274 280 280 273 275 277 281
196 193 207 188 201 186 205 197 164 173 184 172 170 168 172 174 180 188 196 193 194 196 192 203 207 205 219 225 221 231 241 246 235 223 244 262 271 265 263 268 267 270 272 271 274 276 279 281 284
189 209 198 198 188 213 197 215 166 177 197 176 182 182 181 183 187 194 200 201 200 194 192 190 191 205 213 213 216 203 201 199 209 223 244 249 284 280 265 263 266 267 272 274 274 274 274 274 278
193 204 192 204 182 201 201 203 219 184 205 174 173 172 175 180 177 186 192 194 198 199 206 205 212 218 209 207 189 193 198 203 226 238 240 265 287 279 276 265 271 274 273 268 268 280 281 282 281
207 204 202 188 159 202 204 202 195 194 201 197 185 181 185 184 188 183 173 171 178 192 198 207 209 211 204 204 197 194 205 225 236 270 274 279 279 269 256 258 265 270 271 273 278 282 279 275 277
222 196 176 183 177 205 192 203 196 189 201 207 222 208 201 201 194 179 172 170 170 176 187 189 197 206 203 205 216 227 211 243 183 239 244 276 298 311 287 279 276 282 293 296 294 295 295 289 279
183 209 185 180 179 182 188 197 197 194 197 203 197 200 197 207 204 197 181 172 171 173 175 187 198 204 204 195 191 173 182 159 159 122 61 53 52 45 32 19 4 350 343 327 330 317 308 293 289
171 191 196 175 198 189 189 239 184 206 198 198 205 205 214 214 213 207 206 188 176 178 180 193 192 186 187 171 162 154 161 152 124 105 87 74 55 43 32 17 6 2 356 348 339 332 328 329 315
153 177 181 197 209 218 179 215 204 190 208 208 204 212 215 221 220 214 185 174 167 166 171 177 172 163 155 153 149 146 138 126 120 116 102 87 67 36 26 18 10 4 357 349 344 331 319 311 303
194 155 161 181 196 215 206 197 233 193 197 218 209 211 210 213 220 221 208 183 169 164 160 156 157 151 146 140 128 120 116 116 108 104 101 90 63 33 3 357 352 348 343 339 334 326 317 313 302
191 190 166 178 185 160 161 218 209 159 258 211 227 220 205 217 217 216 212 200 179 168 160 154 152 145 137 133 127 120 105 113 105 100 84 65 37 354 345 342 339 336 334 331 329 330 310 310 309
190 210 60 238 190 179 171 201 120 198 168 192 200 207 214 215 215 215 208 196 183 171 163 154 148 142 140 136 129 118 100 99 85 29 357 340 337 342 326 328 329 333 332 328 330 323 324 315 313
190 202 153 223 174 181 179 194 214 173 193 201 212 216 215 220 215 206 197 189 181 170 158 151 147 144 143 138 132 120 123 132 236 297 309 313 317 320 321 322 323 326 323 320 318 316 311 310 307
187 192 208 227 246 189 156 213 207 184 199 200 207 209 231 221 213 200 191 184 175 166 156 149 149 146 142 145 152 156 176 229 267 283 292 301 307 307 307 310 313 317 316 314 312 312 313 304 302
191 196 202 184 175 55 255 102 130 144 147 164 193 222 233 211 196 186 180 176 170 160 153 151 145 145 151 160 172 196 218 244 267 283 291 298 297 300 305 307 307 309 310 309 308 308 306 305 303